Regional Weather Roundup
Issued by NWS Mobile, AL

Home | Current Version | Previous Version | Text Only | Print | Product List | Glossary On
Versions: 1 2 3 4 5 6 7 8 9 10 11 12 13 14 15 16 17 18 19 20 21 22 23 24 25 26 27 28 29 30 31 32 33 34 35 36 37 38 39 40 41 42 43 44 45 46 47 48 49 50
319
ASUS44 KMOB 031412
RWRMOB
REGIONAL WEATHER ROUNDUP
NATIONAL WEATHER SERVICE MOBILE AL
800 AM CST SAT DEC 03 2016

NOTE: "FAIR" INDICATES FEW OR NO CLOUDS BELOW 12,000 FEET WITH NO
      SIGNIFICANT WEATHER AND/OR OBSTRUCTIONS TO VISIBILITY.

  * THESE STATIONS ARE PART OF THE UNIVERSITY OF SOUTH ALABAMA
    MESONET AND ARE NOT UNDER NWS OR FAA QUALITY CONTROL.

ALZ061>064-031500-
COASTAL ALABAMA

CITY           SKY/WX    TMP DP  RH WIND       PRES   REMARKS
MOBILE REG APT CLOUDY    53  40  61 NE12      30.20F
BROOKLEY FIELD CLOUDY    58  38  47 NE14      30.22R
USA CAMPUS*      N/A     52  45  76 NE3       30.20S
DOG RIVER*       N/A     57  39  51 NE2       31.02S


CITY           SKY/WX    TMP DP  RH WIND       PRES   REMARKS
GULF SHORES    CLOUDY    58  37  43 NE10G17   30.20R

$$

ALZ051>060-031500-
INTERIOR SOUTHWEST AND SOUTH CENTRAL ALABAMA

CITY           SKY/WX    TMP DP  RH WIND       PRES   REMARKS
GREENVILLE     CLOUDY    55  31  39 NE10      30.24F
EVERGREEN      CLOUDY    54  35  48 NE5       30.25R
ATMORE*          N/A     54  37  54 NE7       30.25R
ANDALUSIA/OPP  CLOUDY    58  34  40 NE9       30.24R
ANDALUSIA*       N/A     55  32  41 E7        30.23R
FLORALA APT      N/A     54  36  50 NE5       30.26R
FLORALA*         N/A     54  37  54 NW3       31.02S

$$

FLZ001>006-031500-
WESTERN FLORIDA PANHANDLE

CITY           SKY/WX    TMP DP  RH WIND       PRES   REMARKS
PENSACOLA      CLOUDY    57  36  45 NE8       30.21R
NAS PENSACOLA  CLOUDY    59  35  40 NE16      30.20R
MILTON         LGT RAIN  54  35  48 NE7       30.23R
WHTNG S FIELD  CLOUDY    57  37  47 NE7       30.23R


CITY           SKY/WX    TMP DP  RH WIND       PRES   REMARKS
JAY*             N/A     52  39  62 CALM      30.25R
DUKE FIELD     CLOUDY    54  35  49 E5        30.20F
CRESTVIEW      CLOUDY    53  38  56 NE3       30.24S
VALPARAISO     CLOUDY    56  34  43 E10       30.21S
DESTIN         CLOUDY    58  38  47 E8        30.21R

$$

MSZ076-079-031500-
INTERIOR SOUTHEAST MISSISSIPPI

CITY           SKY/WX    TMP DP  RH WIND       PRES   REMARKS
LEAKESVILLE*   NOT AVBL
AGRICOLA*      NOT AVBL

$$

MARINE OBSERVATIONS

STATION/POSITION TIME  TEMP    WIND        PRES    WAVE
                       AIR SEA DIR/SP/G            HT/PER
                 (UTC) (F)     (DEG/KT/KT) (MB)    (FT/S)
PASCAGOULA       1348   58      50/  9/ 11 1021.7R
PETIT BOIS ISLND 1348   59      70/ 21/ 25 1022.1R
GRAND BAY        1230   59      70/ 12     1022.0S
KATRINA CUT      1330   59      70/ 21     1022.0R
CEDAR POINT      1330   59      80/ 18     1021.3R
E DAUPHIN ISLAND 1300   59      70/ 18/ 20 1021.6R
MIDDLE BAY LIGHT 1330   59      80/ 19     1022.0R
USCG MOBILE BAY  1348   57 63   50/  9/ 12 1023.6R
STATE DOCKS      1336   55 64              1022.9R
MEAHER PARK      1330   56      20/  6     1022.7R
WEEKS BAY        1245   57                   N/A
FORT MORGAN      1348   59      70/ 20/ 23 1021.2R
12 S ORANGE BCH  1250   65 71   90/ 21/ 25 1021.3R   6/ 6
PENSACOLA BAY    1336   59 64   90/  6/ 13 1022.2R
64 S DAUPHIN ISL 1310   71 76  100/ 21/ 27 1019.0
67 S FORT MORGAN 1330   69     100/ 27     1019.0

$$

SELECTED LOCATIONS ACROSS THE REGION

CITY           SKY/WX    TMP DP  RH WIND       PRES   REMARKS
NEW ORLEANS    CLOUDY    58  48  69 E13G22    30.13R
GULFPORT       CLOUDY    57  39  51 E13       30.16F
PASCAGOULA AP  CLOUDY    54  41  61 NE8       30.19R
PASCAGOULA*    NOT AVBL
HATTIESBURG    CLOUDY    52  40  63 NE9       30.20F
LAUREL         CLOUDY    52  37  58 E7        30.22F
MERIDIAN       CLOUDY    51  42  71 CALM      30.25R
JACKSON        LGT RAIN  48  44  86 E6        30.24F
MONTGOMERY     CLOUDY    52  39  61 CALM      30.27S
TROY           LGT RAIN  52  37  56 NE5       30.27R
ASHFORD*         N/A     55  32  41 E7        30.23R
DOTHAN         CLOUDY    54  38  54 NE6       30.28R
PANAMA CITY    CLOUDY    55  35  47 NE7       30.21R

$$





USA.gov is the U.S. government's official web portal to all federal, state and local government web resources and services.